Regional Weather Roundup
Issued by NWS

Home | Current Version | Previous Version | Graphics & Text | Print | Product List | Glossary On
Versions: 1 2 3 4 5 6 7 8 9 10 11 12 13 14 15 16 17 18 19 20 21 22 23 24 25 26 27 28 29 30 31 32 33 34 35 36 37 38 39 40 41 42 43 44 45 46 47 48 49 50
000
ASUS43 KIND 200309
RWRIN

WEATHER ROUNDUP FOR INDIANA
NATIONAL WEATHER SERVICE INDIANAPOLIS IN
1000 PM EST SUN NOV 19 2017

NOTE: "FAIR" INDICATES FEW OR NO CLOUDS BELOW 12,000 FEET WITH NO
SIGNIFICANT WEATHER AND/OR OBSTRUCTIONS TO VISIBILITY.

* - STATION DOES NOT REPORT WEATHER SUCH AS PRECIPITATION OR FOG.

+ - STATION NOT QUALITY CONTROLLED BY THE NATIONAL WEATHER SERVICE.
    USE DATA WITH CAUTION...ESPECIALLY DEWPOINT AND RELATIVE
    HUMIDITY OBSERVATIONS.

INZ001>003-010>013-019-020-200400-
NORTHWEST INDIANA

CITY           SKY/WX    TMP DP  RH WIND       PRES   REMARKS
GARY /AIRPORT/ CLEAR     32  19  59 SW8       30.10S WCI  25
KNOX *+        CLEAR     30  23  74 W8        30.10R WCI  23
LA PORTE +     CLEAR     28  21  75 W8        30.08S WCI  20
MICHIGAN CITY+ CLEAR     30  21  69 SW7       30.08S WCI  23
MONTICELLO +   CLEAR     29  21  74 W7        30.12S WCI  21
RENSSELAER +   CLEAR     30  21  69 W8        30.11S WCI  23
VALPARAISO     CLEAR     30  21  69 W10       30.09R WCI  21

$$

LMZ046-743>745-200400-
SOUTHERN LAKE MICHIGAN

STATION/POSITION TIME  TEMP    WIND        PRES    WAVE
                       AIR SEA DIR/SP/G            HT
                 (UTC) (F)     (DEG/KT/KT) (MB)    (FT)
BURNS HARBOR     0240   33     240/ 14/ 19 1019.3R
MICHIGAN CITY    0240   34     240/ 23/ 26   N/A

$$

INZ004-005-014>016-021>024-200400-
NORTH CENTRAL INDIANA

CITY           SKY/WX    TMP DP  RH WIND       PRES   REMARKS
GOSHEN         CLEAR     29  20  69 W14       30.06R WCI  18
LOGANSPORT +   CLEAR     27  23  86 W9        30.13R WCI  17
PERU/GRISSOM   CLEAR     28  24  85 W9        30.11R WCI  19
ROCHESTER +    CLEAR     32  23  69 W8        30.10R WCI  25
SOUTH BEND     CLEAR     27  21  78 SW10      30.06R WCI  17
WARSAW +       CLEAR     28  21  74 W10       30.08R WCI  19

$$

INZ006>009-017-018-025>027-200400-
NORTHEAST INDIANA

CITY           SKY/WX    TMP DP  RH WIND       PRES   REMARKS
AUBURN +       CLEAR     30  21  69 SW8       30.06R WCI  23
FORT WAYNE     CLEAR     31  24  75 W12       30.08R WCI  22
HUNTINGTON +   CLEAR     28  22  78 W12       30.09R WCI  18
KENDALLVILLE + CLEAR     28  22  78 W13       30.05R WCI  18

$$

INZ028-029-035-036-043>045-051>053-200400-
WEST CENTRAL INDIANA

CITY           SKY/WX    TMP DP  RH WIND       PRES   REMARKS
CRAWFORDSVL +  CLEAR     26  22  84 SW7       30.11R WCI  19
GREENCASTLE +  CLEAR     28  21  74 CALM      30.16R
LAFAYETTE      CLEAR     27  22  81 W6        30.13S WCI  20
TERRE HAUTE    CLEAR     27  22  81 SW3       30.18R

$$

INZ030>032-037>040-046>048-054>057-064-065-200400-
CENTRAL INDIANA

CITY           SKY/WX    TMP DP  RH WIND       PRES   REMARKS
CP ATTERBURY + CLEAR     27  23  86 SW5       30.17S WCI  21
COLUMBUS       CLEAR     28  21  74 CALM      30.18R
FISHERS *+     CLEAR     27  25  93 W5        30.14S WCI  21
FRANKFORT +    PTCLDY    31  26  80 W8        30.14R WCI  24
GREENWOOD *+   CLEAR    N/A N/A N/A W5        30.16S
INDIANAPOLIS   CLEAR     27  21  78 SW7       30.15R WCI  19
-EAGLE CREEK   CLEAR     29  21  72 CALM      30.14R
KOKOMO +       CLEAR     29  24  82 W9        30.12S WCI  20
MARION +       CLEAR     29  24  80 W10       30.12R WCI  20
MT COMFORT *+  CLEAR     27  25  93 W7        30.14R WCI  19
SHELBYVILLE    CLEAR     27  21  78 SW7       30.15S WCI  19
ZIONSVILLE +   CLEAR     27  22  82 W6        30.14R WCI  20

$$

INZ033-034-041-042-049-050-058-059-200400-
EAST CENTRAL INDIANA

CITY           SKY/WX    TMP DP  RH WIND       PRES   REMARKS
MUNCIE         CLEAR     29  23  78 W6        30.11S WCI  23
RICHMOND +     CLEAR     27  25  93 W8        30.12S WCI  18

$$

INZ060-061-067>069-081>083-085>088-200400-
SOUTHWEST INDIANA

CITY           SKY/WX    TMP DP  RH WIND       PRES   REMARKS
EVANSVILLE     CLEAR     30  25  81 CALM      30.23S
HUNTINGBURG +  CLEAR     29  23  78 S3        30.22R
WASHINGTON +   CLEAR     30  22  70 CALM      30.20S

$$

INZ062-063-066-070>080-084-089>092-200400-
SOUTH CENTRAL AND SOUTHEAST INDIANA

CITY           SKY/WX    TMP DP  RH WIND       PRES   REMARKS
BEDFORD +      CLEAR     28  21  74 SW3       30.18R
BLOOMINGTON    CLEAR     30  20  66 W5        30.17R WCI  25
MADISON *+     CLEAR     30  25  80 SW3       30.20R
NORTH VERNON + CLEAR     28  21  74 SW3       30.18R
SEYMOUR +      CLEAR     28  21  74 SW5       30.19R WCI  23

$$





USA.gov is the U.S. government's official web portal to all federal, state and local government web resources and services.